Hagerstown, MD

4:13 PM EDT on September 19, 2017 (GMT -0400)
Hagerstown Regional-Henson

Weather History for KHGR - March, 2014

Change the Weather History Date:

Friday, March 21, 2014

  Actual Average Record
Temperature  
Mean Temperature 42 °F 43 °F  
Max Temperature 49 °F 53 °F 73 °F (2011)
Min Temperature 34 °F 34 °F 23 °F (2006)
Degree Days  
Heating Degree Days 23 22  
Month to date heating degree days 609 531  
Since 1 July heating degree days 4624 4434  
Cooling Degree Days 0 0  
Month to date cooling degree days 0 0  
Year to date cooling degree days 0 0  
Moisture  
Dew Point 28 °F    
Average Humidity 54    
Maximum Humidity 69    
Minimum Humidity 39    
Precipitation  
Precipitation T in 0.11 in 1.04 in (1999)
Month to date precipitation 0.58 2.08  
Year to date precipitation 4.36 7.31  
Sea Level Pressure  
Sea Level Pressure 30.06 in    
Wind  
Wind Speed 6 mph (WSW)    
Max Wind Speed 15 mph    
Max Gust Speed 20 mph    
Visibility 10 miles    
Events      
T = Trace of Precipitation, MM = Missing Value Source: NWS Daily Summary

Daily Weather History Graph

Daily Weather History Graph

Search for Another Location

Airport or City:

Trip Planner

Search our weather history database for the weather conditions in past years. The results will help you decide how hot, cold, wet, or windy it might be!

Date:

Astronomy

Mar. 21, 2014 Rise Set
Actual Time 7:12 AM EDT 7:23 PM EDT
Civil Twilight 6:45 AM EDT 7:50 PM EDT
Nautical Twilight 6:14 AM EDT 8:22 PM EDT
Astronomical Twilight 5:42 AM EDT 8:54 PM EDT
Moon No Moon Rise 10:03 AM EDT (3/21)
Length of Visible Light 13h 05m
Length of Day
12h 11m
Waning Gibbous, 75% of the Moon is Illuminated
Mar 21
Waning Gibbous
Mar 23
Last Quarter
Mar 30
New
Apr 7
First Quarter
Apr 15
Full

Hourly Weather History & Observations

Time (EDT) Temp. Windchill Dew Point Humidity Pressure Visibility Wind Dir Wind Speed Gust Speed Precip Events Conditions
12:53 AM 39.9 °F 33.9 °F 23.0 °F 51% 30.03 in 10.0 mi West 9.2 mph - N/A   Partly Cloudy
1:53 AM 39.0 °F 34.0 °F 24.1 °F 55% 30.04 in 10.0 mi West 6.9 mph - N/A   Clear
2:53 AM 39.0 °F 35.7 °F 24.1 °F 55% 30.04 in 10.0 mi West 4.6 mph - N/A   Clear
3:53 AM 39.0 °F 34.0 °F 25.0 °F 57% 30.04 in 10.0 mi West 6.9 mph - N/A   Clear
4:53 AM 37.9 °F 34.4 °F 25.0 °F 60% 30.05 in 10.0 mi West 4.6 mph - N/A   Clear
5:53 AM 35.1 °F 32.2 °F 25.0 °F 67% 30.06 in 10.0 mi NNW 3.5 mph - N/A   Clear
6:53 AM 34.0 °F - 24.1 °F 67% 30.07 in 10.0 mi Calm Calm - N/A   Clear
7:53 AM 35.1 °F 32.2 °F 24.1 °F 64% 30.09 in 10.0 mi NNW 3.5 mph - N/A   Clear
8:53 AM 39.9 °F 35.8 °F 27.0 °F 60% 30.10 in 10.0 mi West 5.8 mph - N/A   Clear
9:53 AM 42.1 °F 40.2 °F 25.0 °F 51% 30.10 in 10.0 mi Variable 3.5 mph - N/A   Clear
10:53 AM 45.0 °F 41.8 °F 25.0 °F 46% 30.10 in 10.0 mi West 5.8 mph - N/A   Clear
11:53 AM 48.9 °F - 25.0 °F 39% 30.09 in 10.0 mi WNW 15.0 mph 20.7 mph N/A   Partly Cloudy
12:53 PM 48.0 °F - 27.0 °F 44% 30.09 in 10.0 mi West 9.2 mph 19.6 mph N/A   Overcast
1:53 PM 45.0 °F 40.1 °F 32.0 °F 60% 30.10 in 10.0 mi WSW 9.2 mph - 0.00 in   Overcast
2:53 PM 46.0 °F 43.1 °F 33.1 °F 61% 30.08 in 10.0 mi West 5.8 mph - N/A   Overcast
3:53 PM 48.9 °F - 33.1 °F 54% 30.07 in 10.0 mi West 4.6 mph - N/A   Mostly Cloudy
4:53 PM 48.9 °F - 32.0 °F 52% 30.06 in 10.0 mi SW 5.8 mph - N/A   Scattered Clouds
5:53 PM 51.1 °F - 32.0 °F 48% 30.05 in 8.0 mi West 4.6 mph - N/A   Clear
6:53 PM 50.0 °F - 32.0 °F 50% 30.06 in 10.0 mi South 5.8 mph - N/A   Clear
7:53 PM 46.0 °F 43.9 °F 33.1 °F 61% 30.05 in 10.0 mi SSE 4.6 mph - N/A   Clear
8:53 PM 45.0 °F 42.6 °F 33.1 °F 63% 30.05 in 10.0 mi SSE 4.6 mph - N/A   Clear
9:53 PM 41.0 °F 36.4 °F 32.0 °F 70% 30.04 in 10.0 mi NE 6.9 mph - N/A   Clear
10:53 PM 42.1 °F 38.4 °F 33.1 °F 70% 30.05 in 10.0 mi South 5.8 mph - N/A   Clear
11:53 PM 43.0 °F 39.5 °F 33.1 °F 68% 30.03 in 10.0 mi South 5.8 mph - N/A   Clear